FW6482 Weather Reports


time (UTC)temp
F
wind
direction
speed
knots
gust
knots
rain 1hr
in
rain 24hr
in
rain mn
in
humidity
%
barometer
mb
20240613043025 44 229 0.9 2.6 0.00 0.00 0.00 91 1016.9
20240613041519 43 229 0.9 2.6 0.00 0.00 0.00 90 1016.9
20240613040013 43 229 0.0 1.7 0.00 0.00 0.00 90 1016.8
20240613034511 43 229 0.9 2.6 0.00 0.00 0.00 89 1016.8
20240613033008 43 229 0.9 1.7 0.00 0.00 0.00 88 1016.9
20240613031507 44 229 0.0 1.7 0.00 0.00 0.00 88 1016.9
20240613030008 44 229 0.9 1.7 0.00 0.00 0.00 88 1016.8
20240613024503 44 229 0.9 2.6 0.00 0.00 0.00 86 1017.0
20240613023122 45 229 0.0 2.6 0.00 0.00 0.00 85 1016.9
20240613021604 45 229 0.0 2.6 0.00 0.00 0.00 85 1016.9
20240613020107 46 229 0.0 2.6 0.00 0.00 0.00 85 1016.9
20240613014602 46 229 0.9 3.5 0.00 0.00 0.00 84 1017.0
20240613013125 47 229 0.9 2.6 0.00 0.00 0.00 84 1017.0
20240613011551 47 229 0.0 1.7 0.00 0.00 0.00 84 1017.0
20240613010049 47 229 0.9 2.6 0.00 0.00 0.00 84 1017.1
20240613004549 47 229 0.9 3.5 0.00 0.00 0.00 83 1017.3
20240613003053 47 229 0.9 4.3 0.00 0.00 0.00 83 1017.4
20240613001553 47 229 0.9 3.5 0.00 0.00 0.00 84 1017.4
20240613000053 47 229 0.9 3.5 0.00 0.00 0.00 84 1017.4
20240612234545 47 229 0.9 3.5 0.00 0.00 0.00 85 1017.4
20240612233051 47 229 1.7 4.3 0.00 0.00 0.00 84 1017.6
20240612231541 47 229 1.7 3.5 0.00 0.00 0.00 83 1017.6
20240612230038 48 229 0.9 2.6 0.00 0.00 0.00 82 1017.5
20240612224537 48 229 1.7 3.5 0.00 0.00 0.00 81 1017.6
20240612223035 49 229 0.9 2.6 0.00 0.00 0.00 80 1017.6
20240612221531 49 229 0.0 2.6 0.00 0.00 0.00 79 1017.6
20240612220028 50 229 0.0 1.7 0.00 0.00 0.00 79 1017.6
20240612214538 50 229 0.0 3.5 0.00 0.00 0.00 78 1017.4
20240612213027 51 229 0.0 0.0 0.00 0.00 0.00 77 1017.4
20240612211542 51 229 0.0 1.7 0.00 0.00 0.00 77 1017.4
20240612210028 51 229 0.0 2.6 0.00 0.00 0.00 75 1017.3
20240612204527 52 229 0.0 2.6 0.00 0.00 0.00 73 1017.2
20240612203025 52 229 0.9 3.5 0.00 0.00 0.00 72 1017.1
20240612201523 53 229 0.9 2.6 0.00 0.00 0.00 71 1017.1
20240612200029 53 229 0.9 3.5 0.00 0.00 0.00 71 1017.0
20240612194523 54 229 1.7 5.2 0.00 0.00 0.00 70 1016.8
20240612193023 54 223 0.0 2.6 0.00 0.00 0.00 68 1016.8
20240612191522 55 223 0.9 3.5 0.00 0.00 0.00 68 1016.7
20240612190022 55 223 0.9 2.6 0.00 0.00 0.00 67 1016.6
20240612184526 55 223 0.0 4.3 0.00 0.00 0.00 66 1016.6
20240612183020 56 221 0.9 4.3 0.00 0.00 0.00 65 1016.6
20240612181521 56 262 0.0 2.6 0.00 0.00 0.00 63 1016.6
20240612180019 56 237 1.7 4.3 0.00 0.00 0.00 63 1016.5
20240612174533 57 244 0.9 7.0 0.00 0.00 0.00 62 1016.4
20240612173028 57 221 1.7 7.0 0.00 0.00 0.00 63 1016.5
20240612171520 57 232 3.5 7.8 0.00 0.00 0.00 62 1016.5
20240612170033 57 226 0.9 3.5 0.00 0.00 0.00 64 1016.5
20240612164521 56 248 2.6 7.8 0.00 0.00 0.00 65 1016.3
20240612163027 57 250 2.6 7.0 0.00 0.00 0.00 65 1016.4
20240612161516 57 242 3.5 8.7 0.00 0.00 0.00 63 1016.5
20240612160020 57 238 2.6 7.8 0.00 0.00 0.00 63 1016.5
20240612154517 57 243 1.7 7.8 0.00 0.00 0.00 62 1016.6
20240612153019 57 244 4.3 11.3 0.00 0.00 0.00 60 1016.7
20240612151516 58 223 2.6 7.8 0.00 0.00 0.00 59 1016.6
20240612150013 58 240 3.5 12.2 0.00 0.00 0.00 56 1016.8
20240612144516 59 231 3.5 10.4 0.00 0.00 0.00 53 1016.8
20240612143012 60 239 2.6 8.7 0.00 0.00 0.00 52 1016.7
20240612141511 61 217 1.7 7.0 0.00 0.00 0.00 53 1016.6
20240612140012 62 207 0.9 4.3 0.00 0.00 0.00 52 1016.6
20240612134510 63 217 1.7 6.1 0.00 0.00 0.00 50 1016.5
20240612133009 64 229 0.0 9.6 0.00 0.00 0.00 49 1016.4
20240612131617 65 219 0.9 7.8 0.00 0.00 0.00 49 1016.5
20240612130043 66 200 0.9 4.3 0.00 0.00 0.00 47 1016.5
20240612124514 66 242 0.0 6.1 0.00 0.00 0.00 47 1016.6
20240612123015 66 61 1.7 4.3 0.00 0.00 0.00 45 1016.5
20240612121514 66 236 1.7 7.8 0.00 0.00 0.00 49 1016.6
20240612120014 66 242 0.9 8.7 0.00 0.00 0.00 48 1016.8
20240612114513 66 275 4.3 9.6 0.00 0.00 0.00 47 1016.8
20240612113013 67 221 1.7 7.8 0.00 0.00 0.00 46 1016.8
20240612111518 66 202 1.7 7.0 0.00 0.00 0.00 48 1016.8
20240612110009 66 120 1.7 6.1 0.00 0.00 0.00 50 1016.9
20240612104504 62 298 1.7 7.8 0.00 0.00 0.00 55 1017.0
20240612103004 61 251 2.6 10.4 0.00 0.00 0.00 56 1017.1
20240612101513 62 246 2.6 12.2 0.00 0.00 0.00 57 1017.3
20240612100013 64 243 2.6 7.8 0.00 0.00 0.00 53 1016.9
20240612094626 64 31 1.7 7.8 0.00 0.00 0.00 56 1017.0
20240612093052 63 179 1.7 5.2 0.00 0.00 0.00 59 1017.0
20240612091507 61 226 1.7 6.1 0.00 0.00 0.00 60 1017.1
20240612090101 61 25 0.9 3.5 0.00 0.00 0.00 61 1017.2
20240612084542 59 243 2.6 7.8 0.00 0.00 0.00 68 1017.2
20240612083134 58 254 0.9 6.1 0.00 0.00 0.00 67 1017.2
20240612081548 58 239 2.6 4.3 0.00 0.00 0.00 67 1017.2
20240612080015 57 238 1.7 4.3 0.00 0.00 0.00 69 1017.2
20240612074605 58 237 2.6 8.7 0.00 0.00 0.00 69 1017.3
20240612073033 57 250 3.5 8.7 0.00 0.00 0.00 72 1017.3
20240612071545 56 236 0.9 5.2 0.00 0.00 0.00 74 1017.4
20240612070052 56 280 1.7 5.2 0.00 0.00 0.00 74 1017.4
20240612064536 54 229 1.7 7.8 0.00 0.00 0.00 79 1017.2
20240612063042 54 216 0.9 4.3 0.00 0.00 0.00 83 1017.1
20240612061531 51 228 2.6 6.1 0.00 0.00 0.00 86 1017.0
20240612060033 50 225 2.6 7.8 0.00 0.00 0.00 88 1017.0
20240612054528 49 224 2.6 7.0 0.00 0.00 0.00 89 1017.0
20240612053027 48 235 4.3 6.1 0.00 0.00 0.00 91 1017.0
20240612051527 46 242 1.7 5.2 0.00 0.00 0.00 92 1016.9
20240612050023 45 233 0.9 6.1 0.00 0.00 0.00 92 1016.9
20240612044520 45 230 2.6 5.2 0.00 0.00 0.00 92 1016.7